Lobo

Go HERE for most recent data if this page is not up to date.

Recent Wx Data
<tr><th> Date/Time </th><td> 10/19 15:00 </td></tr><tr><th> Temp deg F</th><td> 47.4 </td></tr><tr><th> RH %</th><td> 21 </td></tr><tr><th> 24 Hr Snow (in)</th><td> "NAN" </td></tr><tr><th> Snow Depth (in)</th><td> "NAN" </td></tr><tr><th> H2O (in)</th><td> 0.00</td></tr><tr><th>depth</th><td>0</td></tr><tr><th>swe</th><td>0</td></tr>
Jump to table bottom
Date/Time Temp deg F RH % 24 Hr Snow (in) Snow Depth (in) H2O (in)
10/19 21:00 42.5 31 "NAN" "NAN" 0.00
10/19 20:00 42.8 29 "NAN" "NAN" 0.00
10/19 19:00 43.2 29 "NAN" "NAN" 0.00
10/19 18:00 43.6 30 "NAN" "NAN" 0.00
10/19 17:00 45.5 29 "NAN" "NAN" 0.00
10/19 16:00 45.8 24 "NAN" "NAN" 0.00
10/19 15:00 47.4 21 "NAN" "NAN" 0.00
10/19 14:00 47.3 21 "NAN" "NAN" 0.00
10/19 13:00 44.9 27 "NAN" "NAN" 0.00
10/19 12:00 41.5 32 "NAN" "NAN" 0.00
10/19 11:00 40.3 43 "NAN" "NAN" 0.00
10/19 10:00 40.0 44 "NAN" "NAN" 0.00
10/19 09:00 38.3 23 "NAN" "NAN" 0.00
10/19 08:00 36.2 27 "NAN" "NAN" 0.00
10/19 07:00 36.2 30 "NAN" "NAN" 0.00
10/19 06:00 35.7 31 "NAN" "NAN" 0.00
10/19 05:00 37.1 40 "NAN" "NAN" 0.00
10/19 04:00 37.6 30 "NAN" "NAN" 0.00
10/19 03:00 37.0 37 "NAN" "NAN" 0.00
10/19 02:00 38.3 41 "NAN" "NAN" 0.00
10/19 01:00 38.9 36 "NAN" "NAN" 0.00
10/19 00:00 40.0 36 "NAN" "NAN" 0.00
10/18 23:00 40.0 35 "NAN" "NAN" 0.00
10/18 22:00 40.4 33 "NAN" "NAN" 0.00
10/18 21:00 41.6 32 "NAN" "NAN" 0.00
10/18 20:00 41.4 34 "NAN" "NAN" 0.00
10/18 19:00 42.0 34 "NAN" "NAN" 0.00
10/18 18:00 42.9 29 "NAN" "NAN" 0.00
10/18 17:00 44.8 26 "NAN" "NAN" 0.00
10/18 16:00 45.4 26 "NAN" "NAN" 0.00
10/18 15:00 47.4 21 "NAN" "NAN" 0.00
10/18 14:00 47.4 20 "NAN" "NAN" 0.00
10/18 13:00 45.4 25 "NAN" "NAN" 0.00
10/18 12:00 44.7 22 "NAN" "NAN" 0.00
10/18 11:00 41.8 32 "NAN" "NAN" 0.00
10/18 10:00 39.8 46 "NAN" "NAN" 0.00
10/18 09:00 37.4 46 "NAN" "NAN" 0.00
10/18 08:00 35.6 48 "NAN" "NAN" 0.00
10/18 07:00 37.2 52 "NAN" "NAN" 0.00
10/18 06:00 38.5 50 "NAN" "NAN" 0.00
10/18 05:00 39.2 45 "NAN" "NAN" 0.00
10/18 04:00 38.7 46 "NAN" "NAN" 0.00
10/18 03:00 40.4 49 "NAN" "NAN" 0.00
10/18 02:00 41.2 40 "NAN" "NAN" 0.00
10/18 01:00 39.3 40 "NAN" "NAN" 0.00
10/18 00:00 39.8 47 "NAN" "NAN" 0.00
.